TimeAKDT,TemperatureF,Dew PointF,Humidity,Sea Level PressureIn,VisibilityMPH,Wind Direction,Wind SpeedMPH,Gust SpeedMPH,PrecipitationIn,Events,Conditions,WindDirDegrees,DateUTC
12:16 AM,33.8,24.8,70,29.70,10.0,SE,11.5,-,N/A,,Overcast,130,2013-10-13 08:16:00
12:36 AM,33.8,24.8,70,29.70,10.0,SSE,6.9,-,N/A,,Overcast,150,2013-10-13 08:36:00
12:56 AM,33.8,24.8,70,29.70,10.0,SSE,5.8,-,N/A,,Overcast,160,2013-10-13 08:56:00
1:16 AM,33.8,23.0,65,29.70,10.0,South,3.5,-,N/A,,Overcast,170,2013-10-13 09:16:00
1:36 AM,33.8,24.8,70,29.70,10.0,South,6.9,-,N/A,,Overcast,180,2013-10-13 09:36:00
1:56 AM,33.8,23.0,65,29.69,10.0,Calm,Calm,-,N/A,,Mostly Cloudy,0,2013-10-13 09:56:00
2:16 AM,32.0,23.0,69,29.69,10.0,SW,3.5,-,N/A,,Mostly Cloudy,230,2013-10-13 10:16:00
2:36 AM,32.0,23.0,69,29.69,10.0,Calm,Calm,-,N/A,,Overcast,0,2013-10-13 10:36:00
2:56 AM,32.0,23.0,69,29.69,10.0,Calm,Calm,-,N/A,,Overcast,0,2013-10-13 10:56:00
3:16 AM,32.0,23.0,69,29.69,10.0,South,6.9,-,N/A,,Overcast,180,2013-10-13 11:16:00
3:36 AM,30.2,23.0,75,29.68,10.0,Calm,Calm,-,N/A,,Overcast,0,2013-10-13 11:36:00
3:56 AM,30.2,23.0,75,29.68,10.0,SSE,4.6,-,N/A,,Overcast,160,2013-10-13 11:56:00
4:16 AM,32.0,23.0,69,29.67,10.0,SSW,4.6,-,N/A,,Overcast,210,2013-10-13 12:16:00
4:36 AM,30.2,23.0,75,29.66,10.0,South,5.8,-,N/A,,Overcast,170,2013-10-13 12:36:00
4:56 AM,30.2,24.8,80,29.66,10.0,South,8.1,-,N/A,,Overcast,190,2013-10-13 12:56:00
5:16 AM,30.2,24.8,80,29.66,10.0,SSW,8.1,-,N/A,,Overcast,200,2013-10-13 13:16:00
5:36 AM,32.0,24.8,75,29.66,10.0,South,8.1,-,N/A,,Overcast,180,2013-10-13 13:36:00
5:56 AM,33.8,24.8,70,29.65,10.0,SSW,9.2,-,N/A,,Overcast,200,2013-10-13 13:56:00
6:16 AM,33.8,24.8,70,29.64,10.0,South,8.1,-,N/A,,Overcast,180,2013-10-13 14:16:00
6:36 AM,32.0,24.8,75,29.63,10.0,SSW,5.8,-,N/A,,Mostly Cloudy,200,2013-10-13 14:36:00
6:56 AM,30.2,23.0,75,29.63,10.0,SSW,4.6,-,N/A,,Scattered Clouds,210,2013-10-13 14:56:00
7:16 AM,30.2,21.2,69,29.63,10.0,West,3.5,-,N/A,,Overcast,260,2013-10-13 15:16:00
7:36 AM,30.2,21.2,69,29.61,10.0,WSW,3.5,-,N/A,,Mostly Cloudy,240,2013-10-13 15:36:00
7:56 AM,30.2,21.2,69,29.61,10.0,Calm,Calm,-,N/A,,Mostly Cloudy,0,2013-10-13 15:56:00
8:16 AM,28.4,21.2,74,29.59,10.0,Calm,Calm,-,N/A,,Overcast,0,2013-10-13 16:16:00
8:36 AM,28.4,21.2,74,29.59,10.0,South,5.8,-,N/A,,Mostly Cloudy,190,2013-10-13 16:36:00
8:56 AM,28.4,19.4,69,29.59,10.0,SSW,5.8,-,N/A,,Partly Cloudy,210,2013-10-13 16:56:00
9:16 AM,26.6,19.4,74,29.59,10.0,South,3.5,-,N/A,,Clear,180,2013-10-13 17:16:00
9:36 AM,26.6,19.4,74,29.58,10.0,SSW,3.5,-,N/A,,Clear,200,2013-10-13 17:36:00
9:56 AM,26.6,19.4,74,29.58,10.0,Calm,Calm,-,N/A,,Clear,0,2013-10-13 17:56:00
10:16 AM,26.6,19.4,74,29.58,10.0,Calm,Calm,-,N/A,,Clear,0,2013-10-13 18:16:00
10:36 AM,26.6,19.4,74,29.56,10.0,Calm,Calm,-,N/A,,Clear,0,2013-10-13 18:36:00
10:56 AM,28.4,21.2,74,29.56,10.0,SSW,3.5,-,N/A,,Scattered Clouds,200,2013-10-13 18:56:00
11:16 AM,28.4,21.2,74,29.56,10.0,SW,5.8,-,N/A,,Mostly Cloudy,220,2013-10-13 19:16:00
11:36 AM,30.2,21.2,69,29.55,10.0,South,3.5,-,N/A,,Scattered Clouds,190,2013-10-13 19:36:00
11:56 AM,32.0,24.8,75,29.54,10.0,South,8.1,-,N/A,,Partly Cloudy,180,2013-10-13 19:56:00
12:16 PM,33.8,23.0,65,29.54,10.0,Calm,Calm,-,N/A,,Partly Cloudy,0,2013-10-13 20:16:00
12:36 PM,32.0,23.0,69,29.53,10.0,SW,4.6,-,N/A,,Clear,230,2013-10-13 20:36:00
1:16 PM,33.8,23.0,65,29.52,10.0,SW,4.6,-,N/A,,Scattered Clouds,230,2013-10-13 21:16:00
1:36 PM,33.8,23.0,65,29.51,10.0,SW,6.9,-,N/A,,Clear,220,2013-10-13 21:36:00
1:56 PM,33.8,24.8,70,29.50,10.0,SSW,6.9,-,N/A,,Clear,210,2013-10-13 21:56:00
2:16 PM,33.8,23.0,65,29.49,10.0,SSW,8.1,-,N/A,,Clear,200,2013-10-13 22:16:00
2:36 PM,33.8,24.8,70,29.48,10.0,SW,4.6,-,N/A,,Mostly Cloudy,220,2013-10-13 22:36:00
2:56 PM,33.8,23.0,65,29.48,10.0,Calm,Calm,-,N/A,,Partly Cloudy,0,2013-10-13 22:56:00
3:16 PM,33.8,23.0,65,29.46,10.0,SSW,3.5,-,N/A,,Clear,200,2013-10-13 23:16:00
3:36 PM,35.6,24.8,65,29.45,10.0,Calm,Calm,-,N/A,,Clear,0,2013-10-13 23:36:00
3:56 PM,35.6,24.8,65,29.43,10.0,Calm,Calm,-,N/A,,Scattered Clouds,0,2013-10-13 23:56:00
4:16 PM,35.6,24.8,65,29.42,10.0,SSW,3.5,-,N/A,,Mostly Cloudy,200,2013-10-14 00:16:00
4:36 PM,35.6,24.8,65,29.42,10.0,SW,3.5,-,N/A,,Mostly Cloudy,220,2013-10-14 00:36:00
4:56 PM,33.8,24.8,70,29.41,10.0,South,3.5,-,N/A,,Mostly Cloudy,170,2013-10-14 00:56:00
5:16 PM,33.8,23.0,65,29.40,10.0,Calm,Calm,-,N/A,,Scattered Clouds,0,2013-10-14 01:16:00
5:36 PM,33.8,23.0,65,29.40,10.0,Calm,Calm,-,N/A,,Scattered Clouds,0,2013-10-14 01:36:00
5:56 PM,33.8,23.0,65,29.40,10.0,SSW,3.5,-,N/A,,Overcast,200,2013-10-14 01:56:00
6:16 PM,33.8,23.0,65,29.40,10.0,South,3.5,-,N/A,,Overcast,190,2013-10-14 02:16:00
6:36 PM,33.8,23.0,65,29.39,10.0,South,4.6,-,N/A,,Overcast,180,2013-10-14 02:36:00
6:56 PM,35.6,24.8,65,29.38,10.0,SSW,5.8,-,N/A,,Overcast,210,2013-10-14 02:56:00
7:16 PM,35.6,24.8,65,29.37,10.0,SSW,8.1,-,N/A,,Mostly Cloudy,200,2013-10-14 03:16:00
7:36 PM,33.8,23.0,65,29.37,10.0,SW,5.8,-,N/A,,Mostly Cloudy,220,2013-10-14 03:36:00
7:56 PM,33.8,21.2,60,29.36,10.0,SSW,4.6,-,N/A,,Mostly Cloudy,210,2013-10-14 03:56:00
8:16 PM,33.8,21.2,60,29.36,10.0,Calm,Calm,-,N/A,,Mostly Cloudy,0,2013-10-14 04:16:00
8:36 PM,32.0,21.2,64,29.35,10.0,Calm,Calm,-,N/A,,Clear,0,2013-10-14 04:36:00
8:56 PM,30.2,21.2,69,29.35,10.0,Calm,Calm,-,N/A,,Partly Cloudy,0,2013-10-14 04:56:00
9:16 PM,30.2,21.2,69,29.34,10.0,Calm,Calm,-,N/A,,Clear,0,2013-10-14 05:16:00
9:36 PM,30.2,21.2,69,29.33,10.0,SSW,3.5,-,N/A,,Scattered Clouds,200,2013-10-14 05:36:00
9:56 PM,30.2,21.2,69,29.33,10.0,South,5.8,-,N/A,,Partly Cloudy,190,2013-10-14 05:56:00
10:16 PM,30.2,21.2,69,29.33,10.0,South,5.8,-,N/A,,Partly Cloudy,190,2013-10-14 06:16:00
10:36 PM,30.2,21.2,69,29.32,10.0,SSW,4.6,-,N/A,,Mostly Cloudy,210,2013-10-14 06:36:00
10:56 PM,32.0,21.2,64,29.32,10.0,SW,8.1,-,N/A,,Mostly Cloudy,220,2013-10-14 06:56:00
11:16 PM,33.8,23.0,65,29.31,10.0,SW,12.7,-,N/A,,Mostly Cloudy,220,2013-10-14 07:16:00
11:36 PM,33.8,23.0,65,29.32,10.0,SW,11.5,-,N/A,,Scattered Clouds,220,2013-10-14 07:36:00
11:56 PM,33.8,23.0,65,29.32,10.0,SSW,12.7,-,N/A,,Mostly Cloudy,210,2013-10-14 07:56:00